| time (UTC) | temp C | wind direction | speed KPH | gust KPH | rain 1hr cm | rain 24hr cm | rain mn cm | humidity % | barometer mb |
| 20260503203040 | 27 | 313 | 11.3 | 17.7 | 0.00 | 0.00 | 0.00 | 56 | 1011.9 |
| 20260503201535 | 28 | 306 | 1.6 | 12.9 | 0.00 | 0.00 | 0.00 | 60 | 1012.1 |
| 20260503200027 | 29 | 49 | 1.6 | 17.7 | 0.00 | 0.00 | 0.00 | 43 | 1012.1 |
| 20260503194525 | 28 | 59 | 0.0 | 17.7 | 0.00 | 0.00 | 0.00 | 45 | 1012.3 |
| 20260503193022 | 28 | 116 | 8.0 | 19.3 | 0.00 | 0.00 | 0.00 | 45 | 1012.5 |
| 20260503191518 | 28 | 21 | 0.0 | 8.0 | 0.00 | 0.00 | 0.00 | 51 | 1012.7 |
| 20260503190017 | 27 | 59 | 1.6 | 17.7 | 0.00 | 0.00 | 0.00 | 47 | 1012.8 |
| 20260503184512 | 27 | 66 | 1.6 | 16.1 | 0.00 | 0.00 | 0.00 | 51 | 1013.0 |
| 20260503183009 | 26 | 95 | 6.4 | 20.9 | 0.00 | 0.00 | 0.00 | 52 | 1013.2 |
| 20260503181506 | 26 | 24 | 0.0 | 12.9 | 0.00 | 0.00 | 0.00 | 53 | 1013.2 |
| 20260503180002 | 25 | 53 | 3.2 | 17.7 | 0.00 | 0.00 | 0.00 | 53 | 1013.3 |
| 20260503174600 | 25 | 347 | 6.4 | 16.1 | 0.00 | 0.00 | 0.00 | 54 | 1013.3 |
| 20260503173101 | 25 | 72 | 0.0 | 14.5 | 0.00 | 0.00 | 0.00 | 57 | 1013.5 |
| 20260503171559 | 23 | 108 | 1.6 | 12.9 | 0.00 | 0.00 | 0.00 | 58 | 1013.6 |
| 20260503130104 | 8 | 259 | 0.0 | 0.0 | 0.00 | 0.00 | 0.00 | 100 | 1013.7 |
| 20260503081533 | 7 | 259 | 0.0 | 1.6 | 0.00 | 0.00 | 0.00 | 100 | 1014.8 |
| 20260503071524 | 8 | 186 | 0.0 | 0.0 | 0.00 | 0.00 | 0.00 | 100 | 1015.4 |
| 20260503054516 | 10 | 186 | 0.0 | 0.0 | 0.00 | 0.00 | 0.00 | 100 | 1015.8 |
| 20260503053017 | 10 | 186 | 0.0 | 0.0 | 0.00 | 0.00 | 0.00 | 100 | 1015.9 |
| 20260503051513 | 10 | 186 | 0.0 | 0.0 | 0.00 | 0.00 | 0.00 | 100 | 1016.1 |
| 20260503050012 | 10 | 186 | 0.0 | 0.0 | 0.00 | 0.00 | 0.00 | 100 | 1016.1 |
| 20260503044522 | 10 | 186 | 0.0 | 4.8 | 0.00 | 0.00 | 0.00 | 100 | 1016.0 |
| 20260503043012 | 11 | 180 | 1.6 | 4.8 | 0.00 | 0.00 | 0.00 | 99 | 1015.8 |
| 20260503041512 | 11 | 180 | 0.0 | 3.2 | 0.00 | 0.00 | 0.00 | 98 | 1015.6 |
| 20260503040010 | 11 | 178 | 1.6 | 6.4 | 0.00 | 0.00 | 0.00 | 98 | 1015.5 |
| 20260503034510 | 12 | 181 | 1.6 | 4.8 | 0.00 | 0.00 | 0.00 | 97 | 1015.1 |
| 20260503033010 | 12 | 182 | 4.8 | 11.3 | 0.00 | 0.00 | 0.00 | 96 | 1015.0 |
| 20260503031510 | 12 | 179 | 0.0 | 4.8 | 0.00 | 0.00 | 0.00 | 94 | 1014.8 |
| 20260503030108 | 13 | 184 | 4.8 | 9.7 | 0.00 | 0.00 | 0.00 | 93 | 1014.9 |
| 20260503024509 | 14 | 183 | 4.8 | 11.3 | 0.00 | 0.00 | 0.00 | 91 | 1014.9 |
| 20260503023024 | 15 | 169 | 4.8 | 11.3 | 0.00 | 0.00 | 0.00 | 90 | 1014.7 |
| 20260503021507 | 15 | 211 | 3.2 | 9.7 | 0.00 | 0.00 | 0.00 | 89 | 1014.7 |
| 20260503020006 | 15 | 205 | 3.2 | 8.0 | 0.00 | 0.00 | 0.00 | 88 | 1014.8 |
| 20260503014507 | 16 | 176 | 4.8 | 12.9 | 0.00 | 0.00 | 0.00 | 87 | 1014.9 |
| 20260503013114 | 16 | 218 | 4.8 | 12.9 | 0.00 | 0.00 | 0.00 | 88 | 1014.9 |
| 20260503011506 | 16 | 202 | 6.4 | 11.3 | 0.00 | 0.00 | 0.00 | 86 | 1015.0 |
| 20260503010002 | 16 | 218 | 6.4 | 12.9 | 0.00 | 0.00 | 0.00 | 86 | 1015.0 |
| 20260503004600 | 17 | 230 | 8.0 | 14.5 | 0.00 | 0.00 | 0.00 | 85 | 1015.2 |
| 20260503003106 | 17 | 209 | 8.0 | 14.5 | 0.00 | 0.00 | 0.00 | 83 | 1015.2 |
| 20260503001600 | 17 | 284 | 3.2 | 8.0 | 0.00 | 0.00 | 0.00 | 84 | 1015.2 |
| 20260503000109 | 17 | 299 | 4.8 | 9.7 | 0.00 | 0.00 | 0.00 | 84 | 1015.2 |
| 20260502234555 | 17 | 326 | 3.2 | 11.3 | 0.00 | 0.00 | 0.00 | 82 | 1015.3 |
| 20260502233059 | 18 | 257 | 4.8 | 11.3 | 0.00 | 0.00 | 0.00 | 82 | 1015.4 |
| 20260502231552 | 17 | 326 | 4.8 | 12.9 | 0.00 | 0.00 | 0.00 | 84 | 1015.5 |
| 20260502230051 | 18 | 319 | 6.4 | 12.9 | 0.00 | 0.00 | 0.00 | 80 | 1015.5 |
| 20260502224547 | 18 | 9 | 8.0 | 12.9 | 0.00 | 0.00 | 0.00 | 84 | 1015.6 |
| 20260502223044 | 17 | 9 | 3.2 | 11.3 | 0.00 | 0.00 | 0.00 | 85 | 1015.6 |
| 20260502221540 | 17 | 22 | 4.8 | 12.9 | 0.00 | 0.00 | 0.00 | 84 | 1016.1 |
| 20260502220039 | 16 | 29 | 12.9 | 19.3 | 0.00 | 0.00 | 0.00 | 86 | 1016.2 |
| 20260502214537 | 16 | 21 | 12.9 | 19.3 | 0.00 | 0.00 | 0.00 | 86 | 1016.4 |
| 20260502213036 | 16 | 6 | 9.7 | 19.3 | 0.00 | 0.00 | 0.00 | 86 | 1016.4 |
| 20260502211541 | 16 | 16 | 11.3 | 20.9 | 0.00 | 0.00 | 0.00 | 84 | 1016.5 |
| 20260502210033 | 16 | 335 | 9.7 | 19.3 | 0.00 | 0.00 | 0.00 | 87 | 1016.6 |
| 20260502204532 | 16 | 315 | 11.3 | 16.1 | 0.00 | 0.00 | 0.00 | 84 | 1016.8 |